DC1NF-7 Weather Reports


Display with metric or nautical units.
time (UTC)temp
F
wind
direction
speed
MPH
gust
MPH
rain 1hr
in
rain 24hr
in
rain mn
in
humidity
%
barometer
mb
20260510101558 72 93 2.0 6.0 0.00 0.00 0.00 47 1011.7
20260510100554 72 47 1.0 4.0 0.00 0.00 0.00 48 1011.8
20260510095547 72 199 1.0 4.0 0.00 0.00 0.00 48 1011.9
20260510094542 71 103 2.0 6.0 0.00 0.00 0.00 49 1012.0
20260510093542 72 107 1.0 7.0 0.00 0.00 0.00 49 1012.1
20260510092536 70 42 2.0 6.0 0.00 0.00 0.00 52 1012.2
20260510091532 69 72 1.0 4.0 0.00 0.00 0.00 54 1012.2
20260510090528 68 94 1.0 6.0 0.00 0.00 0.00 54 1012.3
20260510085528 68 126 1.0 2.0 0.00 0.00 0.00 53 1012.5
20260510084520 67 178 2.0 4.0 0.00 0.00 0.00 57 1012.5
20260510083522 67 99 1.0 2.0 0.00 0.00 0.00 55 1012.7
20260510082622 66 165 1.0 4.0 0.00 0.00 0.00 57 1012.8
20260510081613 66 186 1.0 4.0 0.00 0.00 0.00 57 1012.9
20260510080610 66 142 1.0 6.0 0.00 0.00 0.00 57 1013.0
20260510075604 64 187 1.0 4.0 0.00 0.00 0.00 60 1012.9
20260510074601 64 51 1.0 4.0 0.00 0.00 0.00 60 1013.0
20260510073557 63 200 2.0 4.0 0.00 0.00 0.00 61 1013.1
20260510072556 62 357 2.0 4.0 0.00 0.00 0.00 62 1013.1
20260510071548 62 185 1.0 4.0 0.00 0.00 0.00 63 1013.1
20260510070548 61 201 1.0 4.0 0.00 0.00 0.00 66 1013.2
20260510065541 60 65 1.0 4.0 0.00 0.00 0.00 67 1013.4
20260510064541 60 83 1.0 4.0 0.00 0.00 0.00 66 1013.4
20260510063537 60 121 1.0 2.0 0.00 0.00 0.00 67 1013.4
20260510062533 58 122 1.0 2.0 0.00 0.00 0.00 70 1013.5
20260510061526 59 107 1.0 4.0 0.00 0.00 0.00 70 1013.6
20260510060521 58 94 1.0 4.0 0.00 0.00 0.00 71 1013.5
20260510055517 57 0.0 2.0 0.00 0.00 0.00 74 1013.6
20260510054613 56 0.0 0.0 0.00 0.00 0.00 77 1013.7
20260510053614 56 97 0.0 2.0 0.00 0.00 0.00 76 1013.6
20260510052607 54 0.0 0.0 0.00 0.00 0.00 81 1013.7
20260510051604 51 0.0 0.0 0.00 0.00 0.00 86 1013.7
20260510050602 50 0.0 0.0 0.00 0.00 0.00 87 1013.7
20260510045559 50 0.0 0.0 0.00 0.00 0.00 88 1013.8
20260510044554 49 0.0 0.0 0.00 0.00 0.00 88 1013.9
20260510043551 49 0.0 0.0 0.00 0.00 0.00 88 1014.0
20260510042545 49 0.0 0.0 0.00 0.00 0.00 89 1014.1
20260510041542 49 0.0 0.0 0.00 0.00 0.00 89 1014.1
20260510040538 49 0.0 0.0 0.00 0.00 0.00 89 1014.0
20260510035535 49 0.0 0.0 0.00 0.00 0.00 90 1014.1
20260510034532 48 0.0 0.0 0.00 0.00 0.00 91 1014.0
20260510033528 48 0.0 0.0 0.00 0.00 0.00 91 1014.0
20260510032523 48 0.0 0.0 0.00 0.00 0.00 90 1014.0
20260510031522 49 0.0 0.0 0.00 0.00 0.00 90 1014.2
20260510030519 49 0.0 0.0 0.00 0.00 0.00 90 1014.2
20260510025616 48 0.0 0.0 0.00 0.00 0.00 91 1014.2
20260510024613 48 0.0 0.0 0.00 0.00 0.00 90 1014.3
20260510023606 48 0.0 0.0 0.00 0.00 0.00 89 1014.2
20260510022605 49 0.0 0.0 0.00 0.00 0.00 89 1014.4
20260510021600 49 0.0 0.0 0.00 0.00 0.00 88 1014.4
20260510020558 50 0.0 0.0 0.00 0.00 0.00 87 1014.4
20260510015549 50 0.0 0.0 0.00 0.00 0.00 88 1014.4
20260510014548 50 0.0 0.0 0.00 0.00 0.00 87 1014.5
20260510013541 50 0.0 0.0 0.00 0.00 0.00 86 1014.6
20260510012538 50 0.0 0.0 0.00 0.00 0.00 86 1014.6
20260510011535 51 0.0 0.0 0.00 0.00 0.00 84 1014.6
20260510010531 52 0.0 0.0 0.00 0.00 0.00 81 1014.7
20260510005529 52 0.0 0.0 0.00 0.00 0.00 82 1014.6
20260510004525 52 0.0 0.0 0.00 0.00 0.00 82 1014.7
20260510003519 52 0.0 0.0 0.00 0.00 0.00 82 1014.8
20260510002519 54 0.0 0.0 0.00 0.00 0.00 78 1014.9
20260510001614 54 68 2.0 2.0 0.00 0.00 0.00 77 1015.0
20260510000610 54 68 2.0 4.0 0.00 0.00 0.00 77 1015.2
20260509235607 54 68 2.0 2.0 0.00 0.00 0.00 78 1015.2
20260509234605 55 64 2.0 4.0 0.00 0.00 0.00 77 1015.2
20260509233602 55 72 3.0 6.0 0.00 0.00 0.00 77 1015.4
20260509232558 55 68 2.0 4.0 0.00 0.00 0.00 77 1015.5
20260509231551 56 71 1.0 2.0 0.00 0.00 0.00 76 1015.6
20260509230548 56 61 1.0 4.0 0.00 0.00 0.00 75 1015.7
20260509225544 56 86 1.0 2.0 0.00 0.00 0.00 75 1015.8
20260509224544 56 73 2.0 4.0 0.00 0.00 0.00 74 1015.7
20260509223538 56 68 2.0 4.0 0.00 0.00 0.00 74 1015.8
20260509222532 57 68 2.0 4.0 0.00 0.00 0.00 73 1015.7
20260509221528 57 63 3.0 4.0 0.00 0.00 0.00 72 1015.8
20260509220524 58 62 3.0 4.0 0.00 0.00 0.00 70 1015.7
20260509215520 58 64 3.0 6.0 0.00 0.00 0.00 69 1015.7
20260509214515 58 77 3.0 4.0 0.00 0.00 0.00 70 1015.6
20260509213613 58 74 2.0 4.0 0.00 0.00 0.00 69 1015.7
20260509212617 59 60 3.0 6.0 0.00 0.00 0.00 68 1015.6
20260509211606 60 79 2.0 4.0 0.00 0.00 0.00 66 1015.7
20260509210602 60 73 1.0 2.0 0.00 0.00 0.00 66 1015.8
20260509205601 61 75 2.0 4.0 0.00 0.00 0.00 65 1015.9
20260509204554 61 91 2.0 4.0 0.00 0.00 0.00 65 1016.0
20260509203550 60 68 3.0 4.0 0.00 0.00 0.00 66 1015.9
20260509202548 61 75 3.0 4.0 0.00 0.00 0.00 66 1015.9
20260509201544 61 58 3.0 4.0 0.00 0.00 0.00 66 1016.0
20260509200541 61 68 3.0 4.0 0.00 0.00 0.00 65 1016.0
20260509195537 62 79 2.0 4.0 0.00 0.00 0.00 64 1015.9
20260509194534 62 62 1.0 2.0 0.00 0.00 0.00 63 1015.7
20260509193533 62 74 2.0 4.0 0.00 0.00 0.00 63 1015.7
20260509192529 62 69 3.0 4.0 0.00 0.00 0.00 64 1015.7
20260509191525 62 76 3.0 6.0 0.00 0.00 0.00 64 1015.6
20260509190521 63 69 2.0 4.0 0.00 0.00 0.00 64 1015.5
20260509185519 63 90 2.0 4.0 0.00 0.00 0.00 62 1015.5
20260509184613 64 71 2.0 4.0 0.00 0.00 0.00 61 1015.4
20260509183608 65 71 2.0 4.0 0.00 0.00 0.00 60 1015.4
20260509182604 65 71 3.0 4.0 0.00 0.00 0.00 59 1015.5
20260509181600 66 73 3.0 6.0 0.00 0.00 0.00 58 1015.5
20260509180556 66 74 3.0 6.0 0.00 0.00 0.00 56 1015.4
20260509175551 67 85 3.0 4.0 0.00 0.00 0.00 55 1015.5
20260509174552 67 68 3.0 4.0 0.00 0.00 0.00 54 1015.4
20260509173547 68 75 3.0 6.0 0.00 0.00 0.00 52 1015.3
20260509172544 69 76 2.0 6.0 0.00 0.00 0.00 51 1015.3
20260509171537 69 91 2.0 6.0 0.00 0.00 0.00 48 1015.5
20260509170535 70 86 2.0 4.0 0.00 0.00 0.00 47 1015.5
20260509165532 71 72 2.0 4.0 0.00 0.00 0.00 46 1015.5
20260509164528 70 88 2.0 4.0 0.00 0.00 0.00 46 1015.5
20260509163522 71 78 1.0 4.0 0.00 0.00 0.00 45 1015.5
20260509162521 70 93 2.0 4.0 0.00 0.00 0.00 45 1015.4
20260509161515 70 83 2.0 4.0 0.00 0.00 0.00 45 1015.6
20260509160612 70 93 2.0 6.0 0.00 0.00 0.00 45 1015.7
20260509155612 71 116 1.0 2.0 0.00 0.00 0.00 44 1015.8
20260509154609 74 90 0.0 2.0 0.00 0.00 0.00 41 1015.7
20260509153602 72 301 1.0 2.0 0.00 0.00 0.00 43 1015.9
20260509152558 72 147 1.0 4.0 0.00 0.00 0.00 45 1016.0
20260509151553 70 66 2.0 4.0 0.00 0.00 0.00 47 1016.0
20260509150550 70 85 4.0 8.0 0.00 0.00 0.00 47 1016.1
20260509145548 73 90 3.0 9.0 0.00 0.00 0.00 45 1016.1
20260509144543 72 90 1.0 4.0 0.00 0.00 0.00 43 1016.3
20260509143539 72 111 1.0 4.0 0.00 0.00 0.00 44 1016.4
20260509142535 72 80 3.0 8.0 0.00 0.00 0.00 45 1016.5
20260509141531 71 82 2.0 7.0 0.00 0.00 0.00 44 1016.6
20260509140530 73 94 2.0 7.0 0.00 0.00 0.00 45 1016.6
20260509135522 71 222 2.0 4.0 0.00 0.00 0.00 44 1016.7
20260509134518 71 237 2.0 4.0 0.00 0.00 0.00 45 1016.9
20260509133618 71 211 3.0 6.0 0.00 0.00 0.00 45 1017.0
20260509132611 70 106 2.0 4.0 0.00 0.00 0.00 47 1017.2
20260509131609 71 106 1.0 4.0 0.00 0.00 0.00 45 1017.4
20260509130607 71 91 3.0 6.0 0.00 0.00 0.00 46 1017.5
20260509125600 70 121 2.0 7.0 0.00 0.00 0.00 48 1017.6
20260509124556 69 78 3.0 7.0 0.00 0.00 0.00 50 1017.7
20260509123554 70 169 2.0 4.0 0.00 0.00 0.00 47 1017.7
20260509122552 70 81 1.0 2.0 0.00 0.00 0.00 47 1017.8
20260509121550 69 74 3.0 6.0 0.00 0.00 0.00 50 1018.1
20260509120546 67 75 2.0 4.0 0.00 0.00 0.00 51 1018.1
20260509115540 70 100 1.0 4.0 0.00 0.00 0.00 48 1018.2
20260509114537 68 142 2.0 4.0 0.00 0.00 0.00 50 1018.1
20260509113534 66 119 3.0 7.0 0.00 0.00 0.00 54 1018.2
20260509112531 66 74 2.0 4.0 0.00 0.00 0.00 52 1018.3
20260509111527 67 79 2.0 7.0 0.00 0.00 0.00 50 1018.5
20260509110521 67 210 1.0 4.0 0.00 0.00 0.00 52 1018.6
20260509105518 67 68 1.0 4.0 0.00 0.00 0.00 51 1018.8
20260509104618 64 89 4.0 6.0 0.00 0.00 0.00 56 1018.8
20260509103614 65 59 1.0 4.0 0.00 0.00 0.00 56 1019.0
20260509102610 67 71 1.0 4.0 0.00 0.00 0.00 54 1019.0